Theta_e
326 328 326 325 325 324 324 323 323 322 322 323 322 320 318 318 318 316 315 318 317 316 316 316 316 316 316 316 316 316 316 316 316 316 316 317 317 317
325 326 325 324 322 322 324 324 323 323 322 322 322 321 320 319 318 316 316 319 319 318 318 318 318 318 317 316 316 316 316 317 318 318 318 318 318 318
323 324 324 324 323 322 322 322 324 323 323 322 322 321 321 320 319 319 318 319 319 320 319 318 318 317 317 317 317 317 318 318 318 317 317 317 316 316
323 323 323 322 322 322 322 323 321 322 323 322 322 321 320 317 314 318 319 319 319 319 320 319 319 319 319 318 318 318 317 317 317 317 317 317 317 316
322 321 321 321 322 322 322 323 323 322 323 322 321 319 317 314 319 319 320 320 320 320 320 320 319 318 316 316 316 316 315 316 317 317 317 317 316 316
320 322 321 321 321 321 322 322 322 321 321 321 321 319 318 318 319 318 320 320 320 319 319 319 319 317 316 316 316 316 316 315 316 315 315 315 315 315
320 321 321 321 321 322 321 320 321 320 321 321 321 320 319 320 320 318 319 319 319 319 319 319 318 317 316 316 316 316 314 314 313 312 312 312 310 310
319 319 319 320 321 321 321 322 321 320 321 321 319 320 319 320 318 316 318 318 316 316 316 315 315 314 312 310 310 310 306 305 306 306 306 306 306 304
317 318 318 319 319 320 320 321 321 321 321 319 320 319 320 320 319 318 318 318 317 316 312 307 306 305 304 304 303 302 301 301 301 302 301 298 296 295
316 317 318 318 318 317 317 320 319 318 320 319 319 320 320 318 318 319 318 317 315 313 311 305 299 299 298 297 296 296 296 296 296 296 294 293 292 287
315 314 315 315 317 315 314 317 317 317 317 318 318 319 318 318 317 317 316 316 311 305 302 302 295 296 293 292 291 291 292 293 292 292 291 285 285 284
309 308 308 310 312 310 312 313 315 312 311 313 313 313 312 313 315 311 313 313 310 300 298 298 295 294 290 288 289 289 289 290 289 285 283 283 283 283
297 300 300 301 304 304 305 305 307 304 303 304 305 305 304 304 303 303 302 301 302 302 297 297 293 291 292 290 289 289 288 286 283 282 282 281 281 281
297 296 296 296 299 299 300 298 297 298 298 299 298 297 297 297 297 296 297 297 297 298 295 295 294 292 291 287 285 285 283 281 281 280 280 280 280 280
294 294 294 294 295 295 294 294 294 295 295 296 295 294 294 292 291 290 288 287 288 288 286 285 284 284 283 282 282 281 280 280 280 279 279 279 279 279
292 292 293 293 293 292 292 292 292 290 288 288 286 285 284 283 283 283 283 283 283 283 282 282 282 282 281 281 280 279 279 278 278 278 278 278 278 278
290 291 291 291 291 290 289 289 287 285 287 288 286 285 284 283 283 282 282 282 282 281 281 281 280 280 279 278 278 278 277 277 276 276 277 278 278 277
286 286 285 284 284 283 283 282 281 281 282 281 280 280 280 280 280 280 280 280 279 279 279 278 278 277 277 277 277 276 276 276 276 276 276 276 277 276
282 281 280 280 280 279 279 279 279 279 279 279 279 278 278 278 278 278 278 277 277 277 277 277 276 276 275 276 275 275 275 275 275 275 275 275 276 276
280 279 279 278 278 278 278 278 278 278 278 278 277 277 277 277 276 276 276 276 276 275 275 275 275 275 275 274 274 273 273 273 274 274 274 274 275 276
277 277 277 277 277 276 276 276 276 276 276 276 276 276 275 275 275 275 275 274 274 274 274 274 274 274 273 273 273 273 272 273 273 273 274 274 274 276
276 275 275 275 275 275 274 274 274 275 274 274 274 274 274 274 273 273 273 273 272 272 272 272 272 272 272 272 272 272 273 273 273 273 272 273 273 273
274 274 274 273 273 273 273 273 273 273 273 273 273 273 272 272 272 272 272 271 271 271 271 271 271 271 271 271 271 271 272 272 273 273 273 272 273 274
Wind_Speed
26 28 26 24 24 26 28 31 30 20 29 32 32 38 33 27 24 26 29 27 25 24 23 22 22 22 21 19 19 19 20 21 22 23 24 23 24 25
27 24 25 26 26 28 30 31 32 33 26 33 39 40 35 30 27 26 29 27 25 23 22 23 22 22 23 24 24 24 24 24 24 25 25 25 26 27
25 24 25 24 29 31 32 34 33 36 34 28 36 43 31 31 30 29 29 28 29 28 27 27 27 27 27 27 26 26 25 26 26 27 27 26 27 30
26 28 31 31 34 38 36 37 37 30 39 38 36 37 33 33 31 33 35 33 32 32 30 29 28 28 27 25 24 24 26 27 29 29 32 31 31 34
25 24 25 26 28 31 34 39 38 35 41 41 34 35 32 34 33 38 36 34 33 32 31 30 28 29 27 27 26 24 24 27 33 36 35 35 35 32
20 20 19 25 30 29 31 34 36 39 43 44 41 35 35 35 35 34 36 33 33 31 31 31 32 32 29 29 30 29 30 31 31 33 35 34 32 30
16 15 18 23 23 23 26 29 36 41 46 43 43 38 35 39 42 42 38 37 35 35 34 34 33 30 31 31 30 32 35 33 32 29 26 25 23 22
13 12 12 13 13 18 18 17 34 42 42 38 42 44 40 41 41 42 40 41 35 34 32 29 28 24 23 22 24 26 22 19 20 18 16 16 16 17
13 11 11 11 11 13 13 22 26 34 36 39 42 39 46 38 38 40 43 44 40 34 32 24 22 22 20 20 20 19 18 15 14 13 11 10 10 11
12 10 9 8 8 9 14 18 24 25 36 35 39 39 32 25 34 38 40 35 29 28 29 25 22 21 18 16 13 12 10 9 8 7 7 7 10 11
11 9 8 7 8 11 7 13 16 19 21 21 24 22 26 33 34 35 34 30 28 26 28 25 24 21 16 14 11 8 7 8 8 8 9 10 10 12
11 9 9 7 8 6 7 8 11 11 14 18 22 26 27 31 33 31 32 32 33 22 22 19 26 24 15 16 14 11 9 7 8 9 10 12 13 15
14 13 11 7 7 8 8 9 9 12 9 9 11 12 11 12 14 14 16 16 19 15 21 20 25 21 10 15 15 13 10 10 10 11 12 13 14 14
16 18 16 10 12 13 14 16 16 14 13 16 17 18 18 18 16 14 13 12 11 10 17 12 18 16 11 9 8 12 11 10 10 11 11 11 14 16
22 20 19 15 17 20 20 19 17 16 16 16 17 18 17 16 15 13 12 11 10 13 14 13 13 13 12 10 9 9 9 10 11 10 12 13 13 15
17 15 14 13 15 17 17 17 16 17 16 16 15 15 14 15 13 13 12 12 9 11 10 9 7 7 6 6 6 6 7 6 10 13 12 11 12 14
9 9 10 10 11 12 12 13 13 13 10 10 11 10 9 8 8 8 6 5 5 5 4 4 3 4 4 4 4 5 6 7 10 12 13 11 11 12
6 7 9 10 10 11 10 10 11 11 11 10 10 9 8 7 6 6 5 5 4 4 3 2 1 2 2 3 3 4 6 8 11 12 13 14 12 12
7 10 10 10 11 10 10 10 9 9 9 8 8 8 7 6 5 5 4 3 3 2 1 1 1 2 1 1 7 6 7 10 11 12 13 14 15 12
9 9 9 9 9 8 8 7 7 6 5 5 4 4 4 4 3 3 3 3 2 1 1 1 1 1 2 3 4 6 9 11 12 14 16 17 16 13
7 6 7 6 6 5 5 4 4 4 3 3 3 3 3 3 3 3 2 2 2 2 1 1 2 2 3 5 5 7 7 9 13 15 17 19 18 15
4 4 3 3 3 3 3 3 2 2 2 2 2 3 3 3 3 3 3 3 2 2 1 2 2 3 4 4 6 9 9 9 9 11 13 14 14 12
2 1 1 1 1 0 0 0 0 0 1 2 2 2 2 3 3 2 2 2 1 1 1 2 2 3 4 5 7 9 11 11 11 10 10 11 14 15
Wind_Direction
241 243 246 252 250 255 252 248 241 228 230 233 217 208 206 207 215 217 214 212 214 213 214 214 214 218 222 225 230 232 234 238 241 244 247 251 256 260
237 242 248 250 256 260 253 256 251 237 233 245 230 217 213 207 209 213 214 212 214 216 215 215 217 218 224 226 231 235 239 242 246 250 254 258 261 264
239 243 248 255 261 260 256 255 250 245 233 234 235 222 216 211 208 215 214 213 213 217 218 220 220 221 224 228 230 236 239 247 252 256 255 258 264 266
245 248 259 259 261 264 262 243 263 251 235 228 237 221 219 204 213 215 219 219 221 220 219 224 224 226 224 229 233 241 252 256 255 257 258 262 270 276
248 250 253 255 258 257 252 252 244 250 240 226 222 213 207 198 221 220 220 221 218 220 220 224 223 222 224 230 239 244 258 264 257 256 260 263 273 277
248 254 258 261 258 258 258 251 243 238 231 219 221 212 210 210 214 215 217 218 215 215 219 218 221 225 233 243 248 255 263 267 258 270 268 270 266 266
245 250 259 268 264 255 253 259 254 233 222 221 214 214 212 208 205 209 218 215 214 219 215 217 223 234 240 247 252 260 267 263 261 259 256 256 259 265
244 256 275 279 273 265 269 261 227 221 222 223 210 211 206 203 208 214 222 208 196 205 209 215 222 229 235 238 247 253 240 233 239 241 247 257 271 276
231 243 267 287 302 280 265 257 232 231 225 219 218 210 209 213 226 222 227 214 207 208 206 199 209 216 220 227 229 229 233 239 243 246 255 264 270 275
221 228 244 256 277 260 251 248 240 228 218 204 208 203 199 221 219 215 221 209 212 213 211 199 201 207 207 209 217 226 231 240 251 259 266 279 284 288
201 201 213 211 228 225 208 207 199 195 188 195 192 200 206 204 212 226 224 223 216 200 204 211 190 192 189 194 199 210 232 252 260 274 275 281 286 295
172 169 177 184 198 191 207 203 203 172 181 197 198 200 201 204 211 206 211 216 214 189 195 187 185 183 174 190 202 213 233 261 272 279 291 300 307 309
114 117 105 114 145 150 156 154 159 151 153 162 167 164 168 175 174 174 183 193 200 191 185 193 184 186 184 185 206 224 235 248 265 281 293 302 308 312
87 86 85 92 103 113 120 113 116 122 121 122 123 120 120 122 122 128 139 150 148 151 163 170 182 195 204 187 193 222 238 251 266 279 291 297 305 309
88 84 86 89 96 101 95 99 103 103 105 109 105 101 103 95 92 87 91 97 113 131 143 155 167 184 193 204 209 219 247 265 278 284 300 307 310 307
82 86 88 89 89 93 103 104 99 90 85 84 89 95 105 115 121 120 120 121 128 128 135 145 160 179 193 207 217 226 241 256 285 294 304 311 311 306
76 83 89 89 92 90 87 88 96 102 105 105 111 112 113 114 119 125 132 143 153 146 156 167 192 209 214 214 227 246 270 288 297 302 309 312 312 311
97 104 99 95 94 95 102 109 116 122 124 127 130 133 134 134 136 137 139 143 145 146 152 161 203 252 260 269 267 284 289 293 301 307 313 317 321 325
93 93 93 94 97 101 102 104 107 110 112 120 126 130 133 138 142 144 142 143 151 160 183 207 200 208 214 164 292 280 288 304 309 313 317 318 324 333
82 90 94 97 99 100 102 104 103 102 106 111 117 125 134 141 145 149 150 153 169 187 224 289 298 285 266 272 280 295 306 314 320 321 321 319 324 332
79 84 90 92 92 92 95 96 99 107 115 124 137 149 156 155 162 160 159 170 175 183 218 277 294 283 296 305 318 321 318 319 320 321 321 321 327 336
60 66 74 78 81 82 80 85 85 92 105 121 139 151 156 159 161 157 161 164 173 186 230 265 292 308 313 313 312 318 322 323 320 318 315 316 319 312
349 325 305 304 306 314 333 4 74 112 125 137 145 152 160 165 167 170 183 189 198 231 268 301 308 306 306 307 313 319 326 329 329 327 319 314 315 310